Location: Peterborough
(44.3091°N, 78.3197°W)
Time: 07:31:52
(UTC-04:00)

Tiangong - Visible Passes

Search period start: 01 June 2023 00:00
Search period end: 11 June 2023 00:00
Orbit: 386 x 391 km, 41.5° (Epoch: 31 May)

Date Brightness Start Highest point End Pass type
(mag) Time Alt. Az. Time Alt. Az. Time Alt. Az.
01 Jun 0.1 04:39:17 10° SSW 04:41:19 16° SSE 04:43:21 10° ESE visible
02 Jun 0.5 03:43:12 10° SSE 03:43:15 10° SSE 03:43:36 10° SE visible
03 Jun -0.6 04:19:40 16° SSW 04:21:22 24° SSE 04:24:02 10° ESE visible
04 Jun 0.0 03:23:46 16° SE 03:23:46 16° SE 03:25:18 10° ESE visible
04 Jun -1.5 04:56:35 10° WSW 04:59:38 42° S 05:02:42 10° E visible
05 Jun -1.2 04:00:06 24° SSW 04:01:18 33° SSE 04:04:14 10° E visible
06 Jun -0.2 03:04:06 20° SE 03:04:06 20° SE 03:05:38 10° ESE visible
06 Jun -1.8 04:36:26 10° WSW 04:39:32 49° S 04:42:39 10° E visible
07 Jun -1.7 03:40:20 36° SSW 03:41:04 43° S 03:44:08 10° E visible
08 Jun -0.1 02:44:18 19° ESE 02:44:18 19° ESE 02:45:32 10° E visible
08 Jun -1.9 04:16:34 13° WSW 04:19:15 50° S 04:22:22 10° ESE visible
09 Jun -2.0 03:20:33 49° S 03:20:40 50° S 03:23:46 10° E visible
10 Jun 0.4 02:24:37 14° E 02:24:37 14° E 02:25:08 10° E visible
10 Jun -1.8 03:56:54 20° WSW 03:58:45 44° S 04:01:49 10° ESE visible
